ASA531 KOAK-KLGB

Flight info

Callsign ASA531
Flight time 1h 0m
Altitude 33000
Route CNDEL5 YYUNG TILLT BAUBB3
Aircraft B739/M-SDE2E3FGHIRWXY/LB1

Departure

Time 2026-04-25 04:46
Airport San Francisco Bay Oakland International Airport (KOAK)

Arrival

Time 2026-04-25 05:47
Airport Long Beach International Airport (KLGB)
Time Latitude Longitude Altitude Speed Heading
2026-04-25 04:23 37.70900 -122.21373 12 ft 0 kts 118°
2026-04-25 04:36 37.70904 -122.21382 12 ft 2 kts 118°
2026-04-25 04:36 37.70912 -122.21400 14 ft 2 kts 118°
2026-04-25 04:37 37.70920 -122.21418 12 ft 2 kts 122°
2026-04-25 04:37 37.70930 -122.21434 13 ft 2 kts 155°
2026-04-25 04:37 37.70942 -122.21437 13 ft 1 kts 208°
2026-04-25 04:37 37.70947 -122.21433 14 ft 0 kts 215°
2026-04-25 04:41 37.70930 -122.21448 13 ft 9 kts 215°
2026-04-25 04:41 37.70878 -122.21512 14 ft 11 kts 238°
2026-04-25 04:42 37.70855 -122.21600 12 ft 11 kts 247°
2026-04-25 04:42 37.70806 -122.21667 15 ft 10 kts 221°
2026-04-25 04:42 37.70753 -122.21725 12 ft 10 kts 221°
2026-04-25 04:42 37.70697 -122.21773 12 ft 10 kts 198°
2026-04-25 04:43 37.70633 -122.21764 10 ft 9 kts 149°
2026-04-25 04:43 37.70587 -122.21707 11 ft 9 kts 133°
2026-04-25 04:43 37.70544 -122.21650 10 ft 9 kts 131°
2026-04-25 04:43 37.70507 -122.21588 10 ft 9 kts 127°
2026-04-25 04:44 37.70466 -122.21524 8 ft 11 kts 130°
2026-04-25 04:44 37.70404 -122.21437 6 ft 15 kts 135°
2026-04-25 04:44 37.70320 -122.21376 7 ft 12 kts 160°
2026-04-25 04:44 37.70266 -122.21359 8 ft 7 kts 171°
2026-04-25 04:45 37.70222 -122.21372 8 ft 7 kts 217°
2026-04-25 04:45 37.70186 -122.21409 8 ft 7 kts 219°
2026-04-25 04:45 37.70169 -122.21455 6 ft 7 kts 297°
2026-04-25 04:45 37.70197 -122.21503 5 ft 9 kts 307°
2026-04-25 04:46 37.70412 -122.21833 7 ft 91 kts 310°
2026-04-25 04:46 37.70981 -122.22692 9 ft 160 kts 304°
2026-04-25 04:46 37.71739 -122.23820 547 ft 180 kts 310°
2026-04-25 04:46 37.72600 -122.24998 1466 ft 172 kts 307°
2026-04-25 04:47 37.73363 -122.26168 1893 ft 180 kts 306°
2026-04-25 04:47 37.74224 -122.27499 2000 ft 214 kts 306°
2026-04-25 04:47 37.75235 -122.29035 2022 ft 238 kts 307°
2026-04-25 04:47 37.76336 -122.30684 2015 ft 254 kts 307°
2026-04-25 04:48 37.77502 -122.32429 2622 ft 258 kts 307°
2026-04-25 04:48 37.78636 -122.34172 3418 ft 262 kts 301°
2026-04-25 04:48 37.79222 -122.36317 4216 ft 262 kts 272°
2026-04-25 04:48 37.78875 -122.38581 4957 ft 267 kts 243°
2026-04-25 04:49 37.77687 -122.40415 5640 ft 274 kts 215°
2026-04-25 04:49 37.75947 -122.41436 6320 ft 280 kts 194°
2026-04-25 04:49 37.74028 -122.41958 7091 ft 281 kts 189°
2026-04-25 04:49 37.72110 -122.42356 7815 ft 285 kts 188°
2026-04-25 04:50 37.70132 -122.42754 8537 ft 288 kts 188°
2026-04-25 04:50 37.68143 -122.43165 9375 ft 289 kts 189°
2026-04-25 04:50 37.66146 -122.43592 9843 ft 291 kts 189°
2026-04-25 04:50 37.64130 -122.44034 9985 ft 298 kts 189°
2026-04-25 04:51 37.62068 -122.44492 9997 ft 301 kts 189°
2026-04-25 04:51 37.60016 -122.44952 10029 ft 298 kts 190°
2026-04-25 04:51 37.57970 -122.45417 10136 ft 311 kts 190°
2026-04-25 04:51 37.55759 -122.45920 10328 ft 333 kts 190°
2026-04-25 04:52 37.53401 -122.46457 10484 ft 354 kts 190°
2026-04-25 04:52 37.50920 -122.47021 10828 ft 367 kts 190°
2026-04-25 04:52 37.48384 -122.47592 11483 ft 369 kts 189°
2026-04-25 04:52 37.45920 -122.48081 12654 ft 354 kts 188°
2026-04-25 04:53 37.43495 -122.48529 13582 ft 353 kts 188°
2026-04-25 04:53 37.41013 -122.48979 14130 ft 359 kts 188°
2026-04-25 04:53 37.38534 -122.49428 14629 ft 366 kts 188°
2026-04-25 04:53 37.35998 -122.49892 15216 ft 369 kts 188°
2026-04-25 04:54 37.33435 -122.50364 15760 ft 374 kts 189°
2026-04-25 04:54 37.30885 -122.50834 16446 ft 373 kts 189°
2026-04-25 04:54 37.28298 -122.51313 16977 ft 379 kts 189°
2026-04-25 04:54 37.25679 -122.51798 17581 ft 380 kts 189°
2026-04-25 04:55 37.23042 -122.52287 18160 ft 384 kts 190°
2026-04-25 04:55 37.20395 -122.52776 18699 ft 386 kts 190°
2026-04-25 04:55 37.17724 -122.53270 19239 ft 387 kts 191°
2026-04-25 04:55 37.15082 -122.53758 19794 ft 388 kts 191°
2026-04-25 04:56 37.12394 -122.54254 20308 ft 391 kts 191°
2026-04-25 04:56 37.09681 -122.54754 20812 ft 393 kts 191°
2026-04-25 04:56 37.06957 -122.55256 21314 ft 396 kts 192°
2026-04-25 04:56 37.04214 -122.55762 21813 ft 398 kts 192°
2026-04-25 04:57 37.01464 -122.56003 22254 ft 408 kts 177°
2026-04-25 04:57 36.98687 -122.55073 22724 ft 418 kts 159°
2026-04-25 04:57 36.96106 -122.53323 23217 ft 423 kts 154°
2026-04-25 04:57 36.93559 -122.51435 23624 ft 428 kts 153°
2026-04-25 04:58 36.90993 -122.49494 23969 ft 432 kts 153°
2026-04-25 04:58 36.88443 -122.47566 24343 ft 434 kts 153°
2026-04-25 04:58 36.85844 -122.45615 24726 ft 437 kts 154°
2026-04-25 04:58 36.83220 -122.43663 25103 ft 440 kts 154°
2026-04-25 04:59 36.80577 -122.41711 25456 ft 442 kts 155°
2026-04-25 04:59 36.77916 -122.39755 25915 ft 442 kts 155°
2026-04-25 04:59 36.75251 -122.37802 26280 ft 445 kts 155°
2026-04-25 04:59 36.72570 -122.35843 26616 ft 448 kts 155°
2026-04-25 05:00 36.69867 -122.33869 26934 ft 452 kts 156°
2026-04-25 05:00 36.67140 -122.31880 27212 ft 456 kts 156°
2026-04-25 05:00 36.64421 -122.29898 27556 ft 458 kts 156°
2026-04-25 05:00 36.61674 -122.27894 28009 ft 457 kts 156°
2026-04-25 05:01 36.59845 -122.26560 28296 ft 458 kts 156°
2026-04-25 05:01 36.57079 -122.24545 28622 ft 461 kts 156°
2026-04-25 05:01 36.54283 -122.22511 28912 ft 464 kts 156°
2026-04-25 05:01 36.51520 -122.20504 29224 ft 467 kts 156°
2026-04-25 05:02 36.48694 -122.18451 29562 ft 468 kts 156°
2026-04-25 05:02 36.45865 -122.16398 29906 ft 469 kts 156°
2026-04-25 05:02 36.43050 -122.14354 30285 ft 469 kts 156°
2026-04-25 05:02 36.40247 -122.12323 30531 ft 471 kts 156°
2026-04-25 05:03 36.37387 -122.10253 30708 ft 475 kts 156°
2026-04-25 05:03 36.34518 -122.08179 30926 ft 478 kts 156°
2026-04-25 05:03 36.31665 -122.06119 31104 ft 481 kts 156°
2026-04-25 05:03 36.28753 -122.04017 31273 ft 484 kts 157°
2026-04-25 05:04 36.25853 -122.01921 31681 ft 481 kts 157°
2026-04-25 05:04 36.22993 -121.99856 32036 ft 479 kts 157°
2026-04-25 05:04 36.20101 -121.97771 32338 ft 480 kts 157°
2026-04-25 05:04 36.17211 -121.95692 32592 ft 480 kts 157°
2026-04-25 05:05 36.14318 -121.93611 32860 ft 480 kts 157°
2026-04-25 05:05 36.11428 -121.91535 33014 ft 482 kts 158°
2026-04-25 05:05 36.08513 -121.89443 32997 ft 484 kts 157°
2026-04-25 05:06 36.02729 -121.85292 32992 ft 481 kts 158°
2026-04-25 05:06 35.99895 -121.83025 32969 ft 490 kts 146°
2026-04-25 05:06 35.97588 -121.79847 33037 ft 499 kts 132°
2026-04-25 05:07 35.93447 -121.73022 32987 ft 498 kts 133°
2026-04-25 05:07 35.89238 -121.66209 32983 ft 498 kts 134°
2026-04-25 05:08 35.84991 -121.59448 32988 ft 498 kts 134°
2026-04-25 05:08 35.80751 -121.52738 32970 ft 500 kts 134°
2026-04-25 05:09 35.76468 -121.45967 32983 ft 501 kts 134°
2026-04-25 05:09 35.72175 -121.39189 32983 ft 502 kts 134°
2026-04-25 05:10 35.67864 -121.32392 32997 ft 504 kts 134°
2026-04-25 05:10 35.63568 -121.25632 32973 ft 504 kts 134°
2026-04-25 05:11 35.59240 -121.18834 32982 ft 504 kts 134°
2026-04-25 05:11 35.54908 -121.12038 32986 ft 504 kts 134°
2026-04-25 05:12 35.47958 -121.02594 32997 ft 490 kts 148°
2026-04-25 05:12 35.42710 -120.97234 32983 ft 490 kts 147°
2026-04-25 05:13 35.37594 -120.91757 32995 ft 491 kts 146°
2026-04-25 05:13 35.32486 -120.86208 32999 ft 490 kts 146°
2026-04-25 05:14 35.27370 -120.80672 33011 ft 489 kts 146°
2026-04-25 05:15 35.19732 -120.72435 33020 ft 488 kts 146°
2026-04-25 05:15 35.14664 -120.66987 32988 ft 486 kts 147°
2026-04-25 05:16 35.09556 -120.61534 33002 ft 486 kts 146°
2026-04-25 05:16 35.04457 -120.56088 33013 ft 486 kts 148°
2026-04-25 05:17 34.99043 -120.51378 33005 ft 477 kts 155°
2026-04-25 05:17 34.93419 -120.47055 33022 ft 477 kts 156°
2026-04-25 05:18 34.87863 -120.42678 33023 ft 478 kts 155°
2026-04-25 05:18 34.82298 -120.38187 32982 ft 479 kts 154°
2026-04-25 05:19 34.76750 -120.33698 33017 ft 478 kts 154°
2026-04-25 05:19 34.71236 -120.29256 33020 ft 479 kts 155°
2026-04-25 05:20 34.65681 -120.24791 33001 ft 479 kts 155°
2026-04-25 05:20 34.60096 -120.20330 32998 ft 478 kts 155°
2026-04-25 05:21 34.54555 -120.15914 33008 ft 478 kts 155°
2026-04-25 05:21 34.49006 -120.11488 33000 ft 478 kts 155°
2026-04-25 05:22 34.43422 -120.07033 32957 ft 478 kts 155°
2026-04-25 05:22 34.37895 -120.02640 32951 ft 477 kts 155°
2026-04-25 05:23 34.32323 -119.98218 32838 ft 479 kts 155°
2026-04-25 05:23 34.29546 -119.96019 32342 ft 482 kts 155°
2026-04-25 05:23 34.26756 -119.93805 31793 ft 477 kts 155°
2026-04-25 05:23 34.23994 -119.91612 31297 ft 472 kts 154°
2026-04-25 05:24 34.21258 -119.89444 30758 ft 467 kts 154°
2026-04-25 05:24 34.18537 -119.87291 30243 ft 463 kts 154°
2026-04-25 05:24 34.15850 -119.85167 29676 ft 460 kts 153°
2026-04-25 05:24 34.13208 -119.83081 29104 ft 456 kts 153°
2026-04-25 05:25 34.10568 -119.80999 28578 ft 451 kts 153°
2026-04-25 05:25 34.07999 -119.78815 28030 ft 453 kts 144°
2026-04-25 05:25 34.05987 -119.75863 27591 ft 459 kts 127°
2026-04-25 05:25 34.04348 -119.72574 27100 ft 456 kts 125°
2026-04-25 05:26 34.02749 -119.69270 26578 ft 453 kts 125°
2026-04-25 05:26 34.01185 -119.66043 26075 ft 449 kts 125°
2026-04-25 05:26 33.99599 -119.62813 25588 ft 446 kts 126°
2026-04-25 05:26 33.98010 -119.59615 25095 ft 443 kts 126°
2026-04-25 05:27 33.96421 -119.56446 24614 ft 440 kts 126°
2026-04-25 05:27 33.94836 -119.53296 24131 ft 438 kts 126°
2026-04-25 05:27 33.93258 -119.50164 23612 ft 436 kts 126°
2026-04-25 05:27 33.91685 -119.47042 23076 ft 434 kts 126°
2026-04-25 05:28 33.90138 -119.43975 22555 ft 431 kts 126°
2026-04-25 05:28 33.88609 -119.40910 22076 ft 422 kts 125°
2026-04-25 05:28 33.87118 -119.37868 21613 ft 419 kts 124°
2026-04-25 05:28 33.85648 -119.34849 21141 ft 416 kts 124°
2026-04-25 05:29 33.84202 -119.31882 20677 ft 413 kts 124°
2026-04-25 05:29 33.82751 -119.28908 20215 ft 411 kts 124°
2026-04-25 05:29 33.81299 -119.25940 19750 ft 409 kts 124°
2026-04-25 05:29 33.79856 -119.22996 19282 ft 407 kts 124°
2026-04-25 05:30 33.78422 -119.20074 18801 ft 406 kts 124°
2026-04-25 05:30 33.77007 -119.17193 18354 ft 404 kts 124°
2026-04-25 05:30 33.75577 -119.14283 17822 ft 403 kts 124°
2026-04-25 05:30 33.74149 -119.11378 17339 ft 401 kts 124°
2026-04-25 05:31 33.72737 -119.08509 16856 ft 398 kts 124°
2026-04-25 05:31 33.71331 -119.05657 16470 ft 394 kts 124°
2026-04-25 05:31 33.69944 -119.02854 16414 ft 387 kts 125°
2026-04-25 05:31 33.68592 -119.00154 16334 ft 377 kts 125°
2026-04-25 05:32 33.67231 -118.97454 15879 ft 379 kts 125°
2026-04-25 05:32 33.65858 -118.94735 15356 ft 380 kts 125°
2026-04-25 05:32 33.64487 -118.92015 14842 ft 381 kts 125°
2026-04-25 05:32 33.63112 -118.89286 14304 ft 382 kts 125°
2026-04-25 05:33 33.61739 -118.86556 13809 ft 382 kts 125°
2026-04-25 05:33 33.60385 -118.83865 13242 ft 377 kts 124°
2026-04-25 05:33 33.59042 -118.81198 12668 ft 369 kts 124°
2026-04-25 05:33 33.57724 -118.78581 12107 ft 362 kts 123°
2026-04-25 05:34 33.56785 -118.75800 11524 ft 360 kts 103°
2026-04-25 05:34 33.56352 -118.72881 11050 ft 352 kts 101°
2026-04-25 05:34 33.55929 -118.70048 10808 ft 337 kts 102°
2026-04-25 05:34 33.55517 -118.67373 10555 ft 324 kts 102°
2026-04-25 05:35 33.55107 -118.64767 10310 ft 313 kts 102°
2026-04-25 05:35 33.54700 -118.62214 10098 ft 310 kts 102°
2026-04-25 05:35 33.54300 -118.59727 10073 ft 297 kts 102°
2026-04-25 05:35 33.53910 -118.57311 9821 ft 294 kts 102°
2026-04-25 05:36 33.53520 -118.54903 9491 ft 293 kts 102°
2026-04-25 05:36 33.53131 -118.52506 9173 ft 292 kts 102°
2026-04-25 05:36 33.52742 -118.50122 8852 ft 291 kts 102°
2026-04-25 05:36 33.52359 -118.47771 8541 ft 290 kts 102°
2026-04-25 05:37 33.52042 -118.45388 8212 ft 289 kts 94°
2026-04-25 05:37 33.51987 -118.42979 7909 ft 288 kts 91°
2026-04-25 05:37 33.51971 -118.40598 7594 ft 287 kts 91°
2026-04-25 05:37 33.51934 -118.38195 7281 ft 287 kts 91°
2026-04-25 05:38 33.51881 -118.35800 6960 ft 287 kts 92°
2026-04-25 05:38 33.51859 -118.33409 6634 ft 286 kts 84°
2026-04-25 05:38 33.52391 -118.31158 6331 ft 284 kts 67°
2026-04-25 05:38 33.53141 -118.28938 5982 ft 284 kts 67°
2026-04-25 05:39 33.53860 -118.26770 5741 ft 279 kts 68°
2026-04-25 05:39 33.54559 -118.24630 5619 ft 271 kts 68°
2026-04-25 05:39 33.55229 -118.22550 5473 ft 263 kts 68°
2026-04-25 05:39 33.55867 -118.20556 5352 ft 256 kts 68°
2026-04-25 05:40 33.56503 -118.18564 5050 ft 255 kts 68°
2026-04-25 05:40 33.57136 -118.16589 4843 ft 251 kts 68°
2026-04-25 05:40 33.57757 -118.14656 4641 ft 246 kts 68°
2026-04-25 05:40 33.58365 -118.12763 4449 ft 240 kts 68°
2026-04-25 05:41 33.58962 -118.10901 4275 ft 237 kts 68°
2026-04-25 05:41 33.59553 -118.09057 4102 ft 236 kts 68°
2026-04-25 05:41 33.60402 -118.07411 4002 ft 231 kts 37°
2026-04-25 05:41 33.61698 -118.06354 4024 ft 228 kts 33°
2026-04-25 05:42 33.63040 -118.05296 4014 ft 230 kts 32°
2026-04-25 05:42 33.64476 -118.04509 3981 ft 231 kts
2026-04-25 05:42 33.66076 -118.04374 3989 ft 233 kts 12°
2026-04-25 05:42 33.67547 -118.03423 3451 ft 246 kts 40°
2026-04-25 05:43 33.68947 -118.02289 3045 ft 244 kts 16°
2026-04-25 05:43 33.70532 -118.02344 2875 ft 221 kts 336°
2026-04-25 05:43 33.71766 -118.03311 2632 ft 205 kts 320°
2026-04-25 05:43 33.72848 -118.04360 2361 ft 193 kts 318°
2026-04-25 05:44 33.73784 -118.05415 2111 ft 181 kts 314°
2026-04-25 05:44 33.74642 -118.06456 1875 ft 169 kts 314°
2026-04-25 05:44 33.75466 -118.07461 1621 ft 169 kts 313°
2026-04-25 05:44 33.76259 -118.08426 1380 ft 157 kts 312°
2026-04-25 05:45 33.77023 -118.09356 1199 ft 158 kts 313°
2026-04-25 05:45 33.77786 -118.10285 977 ft 153 kts 314°
2026-04-25 05:45 33.78522 -118.11179 778 ft 147 kts 312°
2026-04-25 05:45 33.79259 -118.12075 590 ft 152 kts 312°
2026-04-25 05:46 33.79994 -118.12973 402 ft 148 kts 313°
2026-04-25 05:46 33.80695 -118.13822 181 ft 140 kts 312°
2026-04-25 05:46 33.81152 -118.14380 54 ft 138 kts 311°
2026-04-25 05:46 33.81743 -118.15100 52 ft 102 kts 314°
2026-04-25 05:47 33.82013 -118.15436 51 ft 32 kts 314°
2026-04-25 05:47 33.82099 -118.15517 50 ft 11 kts 339°
2026-04-25 05:47 33.82158 -118.15484 54 ft 10 kts 73°
2026-04-25 05:47 33.82164 -118.15403 53 ft 10 kts 86°
2026-04-25 05:48 33.82166 -118.15325 55 ft 10 kts 91°
2026-04-25 05:48 33.82163 -118.15242 54 ft 10 kts 91°
2026-04-25 05:48 33.82162 -118.15160 53 ft 10 kts 91°
2026-04-25 05:48 33.82164 -118.15079 53 ft 9 kts 87°
2026-04-25 05:49 33.82166 -118.15000 53 ft 9 kts 89°
2026-04-25 05:49 33.82166 -118.14925 53 ft 9 kts 91°
2026-04-25 05:49 33.82163 -118.14851 58 ft 9 kts 93°
2026-04-25 05:49 33.82158 -118.14779 62 ft 9 kts 95°
2026-04-25 05:50 33.82159 -118.14671 46 ft 7 kts 89°
2026-04-25 05:50 33.82132 -118.14626 45 ft 8 kts 185°
2026-04-25 05:50 33.82082 -118.14654 52 ft 8 kts 198°
2026-04-25 05:50 33.82028 -118.14667 52 ft 7 kts 187°
2026-04-25 05:51 33.81987 -118.14671 53 ft 6 kts 181°
2026-04-25 05:51 33.81950 -118.14668 53 ft 5 kts 162°
2026-04-25 05:51 33.81938 -118.14620 52 ft 9 kts 86°
2026-04-25 05:51 33.81939 -118.14604 51 ft 0 kts 88°